This demonstration page uses our WeatherBlox Daily Observations layout. Learn more.

Left ArrowRight Arrow

30.21309, -93.2044

Hourly Observations for July 13, 2021

Temp ( °F °C ) Dew Point ( °F °C ) Humidity (%) Winds ( mph kmh ) Pressure ( in mb ) Visibility ( mi km ) Precip ( " mm )
12:15 am 00:15 Partly Cloudy 74 23.2 71 21.6 91 91 Calm 30.12 1020 10 16 0.00 0.00
12:35 am 00:35 Mostly Cloudy 74 23.2 71 21.7 91 91 E 3 6 30.13 1020 10 16 0.00 0.00
12:55 am 00:55 Mostly Cloudy 74 23.2 71 21.8 92 92 ENE 3 6 30.12 1020 10 16 0.00 0.00
1:15 am 01:15 Mostly Cloudy 74 23.1 71 21.7 92 92 ENE 3 6 30.12 1020 10 16 0.00 0.00
1:35 am 01:35 Mostly Cloudy 73 23 71 21.6 92 92 Calm 30.12 1020 10 16 0.00 0.00
1:55 am 01:55 Partly Cloudy 73 22.9 71 21.5 92 92 ESE 3 6 30.11 1020 10 16 0.00 0.00
2:15 am 02:15 Partly Cloudy 73 22.7 71 21.5 93 93 E 3 6 30.11 1020 10 16 0.00 0.00
2:35 am 02:35 Clear 73 22.8 71 21.5 92 92 Calm 30.11 1020 10 16 0.00 0.00
2:55 am 02:55 Clear 73 22.8 71 21.5 92 92 N 3 6 30.11 1020 10 16 0.00 0.00
3:15 am 03:15 Clear 73 22.7 71 21.6 94 94 N 3 6 30.11 1020 10 16 0.00 0.00
3:35 am 03:35 Clear 73 22.8 71 21.8 94 94 Calm 30.11 1020 10 16 0.00 0.00
3:55 am 03:55 Clear 73 22.7 71 21.6 94 94 Calm 30.11 1020 10 16 0.00 0.00
4:15 am 04:15 Partly Cloudy 73 22.8 71 21.7 94 94 NE 3 6 30.11 1020 10 16 0.00 0.00
4:35 am 04:35 Partly Cloudy 73 22.9 71 21.8 94 94 ENE 3 6 30.12 1020 10 16 0.00 0.00
4:55 am 04:55 Partly Cloudy 73 22.9 71 21.9 94 94 ENE 5 7 30.12 1020 10 16 0.00 0.00
5:15 am 05:15 Clear 73 22.8 71 21.8 94 94 E 5 7 30.12 1020 10 16 0.00 0.00
5:35 am 05:35 Partly Cloudy 73 22.9 72 22 95 95 ENE 3 6 30.13 1020 10 16 0.00 0.00
6:00 am 06:00 Mostly Clear 73 23 72 22 94 94 Calm 30.13 1020 10 16 0.00 0.00
6:51 am 06:51 Mostly Sunny 73 23 72 22 94 94 Calm 30.15 1021 7 11 0.00 0.00
7:55 am 07:55 Partly Cloudy 77 25 75 24 94 94 Calm 30.15 1021 10 16 0.00 0.00
8:55 am 08:55 Partly Cloudy 82 28 77 25 84 84 Calm 30.17 1022 10 16 0.00 0.00
9:45 am 09:45 Mostly Cloudy 84 29 77 25 79 79 Calm 30.17 1022 10 16 0.00 0.00
10:45 am 10:45 Mostly Cloudy 88 31 75 24 66 66 Calm 30.18 1022 10 16 0.00 0.00
11:51 am 11:51 Mostly Cloudy 90 32 73 23 59 59 Calm 30.18 1022 10 16 0.00 0.00
12:55 pm 12:55 Mostly Cloudy 91 33 73 23 56 56 ENE 5 7 30.18 1022 10 16 0.00 0.00
1:47 pm 13:47 Mostly Cloudy 91 33 75 24 59 59 SE 8 13 30.16 1021 10 16 0.00 0.00
2:27 pm 14:27 Mostly Cloudy with Thunderstorms 82 28 72 22 70 70 ESE 12 19 30.17 1022 3 5 0.00 0.00
2:55 pm 14:55 Mostly Cloudy with Thunderstorms 81 27 72 22 74 74 WNW 5 7 30.17 1022 7 11 0.00 0.00
3:54 pm 15:54 Mostly Cloudy with Light Rain 75 24 66 19 74 74 NNW 5 7 30.15 1021 10 16 0.00 0.00
4:46 pm 16:46 Mostly Sunny 79 26 72 22 79 79 ENE 6 9 30.15 1021 10 16 0.00 0.00
5:47 pm 17:47 Mostly Sunny 82 28 72 22 70 70 Calm 30.14 1021 10 16 0.00 0.00
6:55 pm 18:55 Mostly Sunny 81 27 75 24 84 84 N 7 11 30.17 1022 10 16 0.00 0.00
7:50 pm 19:50 Partly Cloudy with Thunderstorms 79 26 73 23 84 84 NNE 5 7 30.16 1021 10 16 0.00 0.00
8:55 pm 20:55 Mostly Clear 77 25 73 23 89 89 Calm 30.18 1022 10 16 0.00 0.00
9:46 pm 21:46 Mostly Clear 79 26 72 22 79 79 Calm 30.18 1022 10 16 0.00 0.00
10:15 pm 22:15 Clear 76 24.7 73 22.9 90 90 Calm 30.19 1022 10 16 0.00 0.00
10:35 pm 22:35 Clear 76 24.4 73 23 92 92 ENE 5 7 30.20 1023 10 16 0.00 0.00
10:55 pm 22:55 Clear 76 24.5 73 23 91 91 ENE 6 9 30.20 1023 10 16 0.00 0.00
11:15 pm 23:15 Clear 75 24.1 73 22.9 93 93 E 6 9 30.20 1023 10 16 0.00 0.00
11:35 pm 23:35 Clear 75 24.1 73 23 94 94 Calm 30.20 1023 10 16 0.00 0.00
11:55 pm 23:55 Clear 76 24.2 73 22.8 92 92 Calm 30.19 1022 10 16 0.00 0.00

Powered by AerisWeather